Regional Weather Roundup
Issued by NWS Nashville, TN

Home | Current Version | Previous Version | Text Only | Print | Product List | Glossary On
Versions: 1 2 3 4 5 6 7 8 9 10 11 12 13 14 15 16 17 18 19 20 21 22 23 24 25 26 27 28
000
ASUS44 KOHX 280510
RWROHX
MIDDLE TENNESSEE HOURLY WEATHER ROUNDUP
NATIONAL WEATHER SERVICE NASHVILLE TN
1200 AM CDT SAT MAY 28 2016

NOTE: "FAIR" INDICATES FEW OR NO CLOUDS BELOW 12,000 FEET WITH
NO SIGNIFICANT WEATHER AND/OR OBSTRUCTIONS TO VISIBILITY.

* THESE REPORTS ARE NOT UNDER NWS QUALITY CONTROL AND MAY NOT
  REPORT WEATHER SUCH AS PRECIPITATION AND FOG.


TNZ005>011-023>034-057-059-062>066-078-080-280600
...NORTHERN MIDDLE TENNESSEE...

CITY           SKY/WX    TMP DP  RH WIND       PRES   REMARKS
CLARKSVILLE    CLEAR     74  64  71 SE8       29.96S
CROSSVILLE     CLEAR     71  60  68 SE6       30.11F
DICKSON        CLEAR     72  64  78 SE6       29.98F
NASHVILLE      CLOUDY    75  62  64 SE6       30.00F
SMYRNA         CLOUDY    74  64  70 SE5       30.02F
SPARTA         CLEAR     70  66  88 CALM      30.05S
$$
TNZ056-058-060-061-075>077-079-093>097-280600
...SOUTHERN MIDDLE TENNESSEE...

CITY           SKY/WX    TMP DP  RH WIND       PRES   REMARKS
COLUMBIA       CLEAR     73  73 100 SE5       29.98F
FAYETTEVILLE   PTCLDY    72  68  88 SE5       30.03F
LEWISBURG      CLOUDY    72  65  78 SE3       30.01F
MCMINNVILLE    CLEAR     72  70  94 CALM      30.05F
SHELBYVILLE    CLEAR     72  68  88 SE6       30.03F
TULLAHOMA      PTCLDY    70  70 100 SE5       30.05F
WINCHESTER     CLEAR     72  66  83 CALM      30.05F
$$


...KEY TO REMARKS...
VSB - VISIBILITY IN MILES
WCI - WIND CHILL INDEX
HX  - HEAT INDEX





USA.gov is the U.S. government's official web portal to all federal, state and local government web resources and services.